Theta_e
290 290 291 291 291 292 292 293 294 295 295 294 294 293 293 293 292 291 291 291 289 289 289 289 288 289 288 288 287 287 286 287 288 281 283 284 285 284 283 283 284 284 284
289 289 289 290 290 290 290 291 292 292 293 293 292 292 291 291 291 289 289 289 288 287 287 287 287 285 287 285 285 284 283 284 285 281 280 280 281 283 283 282 281 281 283
287 287 287 288 287 287 287 289 290 290 290 292 291 290 290 290 289 289 289 289 288 287 287 286 286 284 284 284 283 283 283 281 283 283 279 280 280 281 280 281 281 282 282
285 286 286 286 286 285 286 287 288 288 289 289 290 289 289 289 288 288 287 288 288 287 287 286 284 283 283 284 283 283 282 282 281 281 280 278 278 279 280 280 280 281 281
283 284 285 286 286 284 283 284 286 286 287 288 287 287 288 288 287 286 286 287 287 286 286 285 284 284 285 285 283 283 282 281 280 279 279 277 277 277 277 280 279 280 281
282 283 284 286 284 281 282 283 284 285 286 287 287 287 287 286 288 289 287 285 285 284 284 284 283 284 284 286 286 286 283 281 279 279 279 277 278 279 280 279 278 277 278
282 282 282 284 280 279 281 283 282 283 285 285 286 287 287 287 288 289 288 285 285 284 284 283 282 282 283 283 285 285 284 285 284 281 279 279 279 280 280 278 278 278 278
281 281 282 281 278 278 279 281 282 282 283 283 285 286 286 285 288 289 288 286 285 285 284 283 282 282 282 282 282 282 281 282 282 280 281 281 281 281 280 280 279 279 279
279 279 280 279 276 277 276 278 278 280 281 282 283 284 284 285 286 287 287 286 285 284 284 284 283 282 282 284 281 281 280 279 283 282 282 283 283 282 281 280 277 275 274
279 278 278 277 275 275 275 275 277 279 280 281 281 283 283 283 285 286 286 286 284 284 283 282 283 282 283 285 281 280 278 278 279 279 280 282 282 281 281 280 279 275 274
278 277 276 275 274 274 273 274 274 275 276 278 279 281 282 283 283 285 286 285 285 284 282 282 281 283 283 284 284 281 280 280 280 280 280 279 280 279 279 279 278 276 274
275 274 273 272 272 272 271 271 271 272 273 275 278 279 281 282 282 283 285 286 286 284 281 281 279 282 283 284 283 282 283 281 279 278 278 277 276 275 275 275 275 276 276
270 269 269 269 269 269 268 269 269 271 272 274 277 278 278 280 280 282 283 284 285 285 283 281 280 282 283 283 285 282 281 278 277 275 275 274 274 274 274 273 274 274 274
266 266 266 266 267 267 268 268 268 269 271 273 276 277 278 279 279 279 279 280 282 284 281 280 280 281 282 282 282 280 279 277 276 275 274 274 273 272 271 272 271 272 271
262 263 263 264 264 264 265 266 267 269 271 270 272 276 276 277 279 279 279 279 281 283 279 278 278 278 278 279 279 278 277 275 274 273 272 271 270 270 270 271 271 270 269
260 260 261 261 262 262 262 263 267 269 271 273 274 275 277 281 281 282 281 282 282 283 276 276 276 277 278 278 278 274 274 273 272 271 271 270 270 269 269 269 270 269 268
259 259 260 260 260 260 261 261 260 264 268 270 272 274 277 281 282 282 282 282 283 282 276 275 277 277 277 277 273 272 271 272 271 270 270 270 269 269 268 268 268 268 268
259 259 259 260 260 260 260 260 261 261 261 264 269 273 276 280 281 284 282 282 280 281 277 276 276 277 276 275 273 272 271 270 269 269 268 268 268 268 267 267 267 267 266
260 260 260 260 260 260 260 260 260 260 261 262 264 268 271 277 279 281 283 279 278 279 277 277 277 275 274 273 272 270 269 269 268 268 267 267 267 267 266 267 267 265 265
261 261 261 261 261 260 260 260 260 260 261 262 264 266 271 275 275 279 281 280 279 279 277 275 274 273 273 272 270 269 268 267 267 266 266 266 266 266 266 265 265 266 266
261 262 262 262 261 261 261 260 261 261 261 262 264 267 275 274 274 276 279 279 279 277 274 272 271 270 270 268 268 267 266 266 265 265 265 265 265 264 266 266 266 265 265
262 262 263 263 263 263 262 262 262 262 262 263 265 270 274 274 276 277 277 274 273 273 272 270 268 268 267 266 266 266 264 264 264 264 264 264 263 264 264 264 264 265 265
262 262 263 264 266 265 263 263 263 263 264 265 269 271 272 270 270 269 268 268 268 268 268 267 265 265 266 266 267 266 265 264 264 265 264 263 263 264 263 264 264 264 264
261 262 262 263 265 265 265 265 265 266 268 269 268 267 266 265 264 264 264 264 265 265 265 265 264 264 263 263 264 265 265 264 264 264 264 263 263 262 263 263 263 263 264
260 260 261 261 262 263 264 264 264 264 264 264 263 263 263 262 262 262 262 263 263 263 263 263 263 262 262 261 261 261 262 261 261 260 260 261 261 261 261 262 263 264 264
259 259 260 260 260 261 261 262 262 262 262 262 262 262 261 261 261 261 261 261 261 261 261 261 261 261 261 261 260 260 262 261 259 258 259 260 260 261 262 262 263 264 264
Wind_Speed
16 16 16 15 15 14 13 14 14 14 14 14 14 15 16 18 18 18 19 17 18 17 15 16 17 14 10 9 8 6 6 4 4 3 4 8 12 11 8 7 6 7 6
16 15 14 13 15 15 15 15 14 15 14 14 14 15 15 17 18 19 20 18 19 19 17 16 17 10 14 11 8 9 9 8 4 6 7 7 8 10 8 8 6 6 7
16 15 15 14 15 15 15 14 13 13 14 14 14 15 15 16 18 19 20 20 20 20 19 19 17 16 16 13 12 11 8 6 7 3 5 6 4 8 8 8 8 9 7
16 15 15 15 14 14 14 13 13 12 12 13 14 15 15 16 17 18 19 19 19 18 19 20 20 21 20 18 16 15 12 10 8 7 5 5 5 7 7 8 8 8 7
14 14 14 13 14 15 14 14 14 12 10 12 13 15 15 15 12 17 17 19 20 18 18 19 20 21 26 22 14 16 16 12 10 9 8 6 7 6 11 7 6 4 5
13 13 13 12 13 16 15 15 14 14 12 11 12 14 17 12 19 24 21 17 19 18 19 18 17 19 22 29 29 28 25 20 16 11 10 10 12 8 8 7 5 3 2
14 13 13 10 12 14 15 14 15 16 14 14 14 14 16 16 21 24 27 17 16 18 20 18 16 13 19 19 27 27 27 28 24 17 16 14 11 11 10 9 7 6 4
11 11 13 12 15 16 15 14 13 13 14 13 14 14 14 13 22 23 25 19 18 19 20 21 21 20 20 20 19 17 17 17 17 11 12 12 9 11 11 9 8 6 5
13 12 12 10 13 16 17 18 17 15 15 14 14 14 14 14 22 23 19 16 19 20 18 19 20 20 28 34 22 20 18 15 20 21 15 15 17 18 13 8 7 6 5
13 13 13 11 12 14 16 17 16 15 17 14 15 15 16 16 19 23 21 13 18 15 15 17 25 21 30 36 23 22 20 20 18 16 13 14 15 14 17 10 7 8 5
12 13 13 14 15 14 16 15 16 17 17 16 16 15 16 15 15 21 23 16 14 13 13 13 13 30 29 34 28 18 21 18 22 15 12 10 10 9 7 7 8 8 8
14 15 16 15 14 14 17 17 17 16 17 18 16 15 11 12 17 20 25 29 23 14 14 10 10 25 28 30 27 25 27 23 13 12 12 11 9 8 7 7 9 8 7
17 18 17 18 17 16 17 17 15 15 14 15 13 13 11 9 9 20 25 28 28 18 10 13 18 24 28 30 34 28 25 12 14 13 11 9 8 7 9 7 6 6 7
20 20 18 18 18 16 14 13 14 14 14 14 14 13 11 10 9 7 9 11 20 18 18 14 16 20 24 20 19 20 12 12 12 12 11 9 8 8 7 7 6 6 5
20 19 19 16 17 16 15 14 14 15 16 14 14 13 13 13 10 13 12 10 9 11 12 9 9 11 12 13 13 14 11 11 11 10 10 10 8 8 7 7 6 6 6
19 15 14 14 14 14 14 15 25 32 35 35 37 30 17 27 26 24 20 24 23 24 10 11 11 12 13 12 12 12 12 13 11 10 10 9 9 9 9 8 6 5 5
18 18 15 16 14 14 14 15 16 16 29 32 33 35 36 32 28 23 22 21 23 26 11 11 11 12 12 11 10 12 12 11 13 11 11 9 8 8 9 7 6 5 5
18 23 16 14 14 14 14 14 14 14 15 13 19 24 26 28 23 24 22 17 11 20 11 11 11 11 11 11 11 10 10 10 10 11 10 10 9 8 8 7 6 5 4
17 14 15 14 14 15 14 14 13 14 14 14 13 18 20 26 22 26 23 10 9 12 10 10 10 10 11 11 10 10 11 10 11 10 9 8 8 8 8 7 5 5 4
16 22 20 14 13 13 12 12 12 12 13 12 11 12 12 9 9 8 10 9 7 8 9 9 9 9 9 9 9 10 10 11 10 9 9 8 8 7 7 6 5 5 6
13 15 19 14 13 12 12 12 11 11 11 11 12 14 20 9 8 8 7 7 5 6 9 10 10 9 9 9 9 10 10 10 10 10 9 8 8 7 6 6 5 5 6
14 13 13 13 12 11 11 10 10 11 11 11 11 13 16 9 8 5 4 7 7 7 8 11 9 9 9 11 11 10 11 11 9 9 8 8 7 7 6 5 5 6 5
12 14 13 12 10 9 9 9 9 10 10 11 11 8 4 2 3 7 8 8 8 8 8 8 9 9 8 8 8 10 11 9 8 8 8 8 7 7 6 6 6 5 5
11 12 12 10 10 8 6 8 8 10 8 4 4 4 4 5 6 8 8 8 8 8 8 8 8 13 12 9 8 8 8 8 6 7 9 7 7 7 5 5 5 6 6
10 10 10 11 10 9 9 8 8 8 7 7 6 6 6 7 7 8 9 8 8 8 10 9 9 14 14 14 12 12 11 12 8 8 5 6 6 7 5 4 5 6 8
10 10 9 9 10 10 9 9 9 8 8 8 8 8 8 8 8 9 9 9 9 9 11 9 11 15 14 11 11 12 11 10 8 8 5 5 5 5 5 7 9 7 8
Wind_Direction
359 359 0 358 360 355 338 312 293 279 262 240 225 221 220 218 217 216 214 208 207 208 207 204 205 195 194 192 183 180 183 182 164 148 167 171 182 190 199 216 231 243 255
352 345 346 352 352 353 353 341 317 292 274 257 243 225 222 220 219 221 217 210 205 209 207 206 207 193 199 187 179 192 189 181 165 150 171 177 193 206 210 217 223 236 247
343 340 338 344 347 346 344 340 334 309 283 270 253 239 228 220 221 218 222 221 209 208 204 205 204 195 200 191 188 176 193 185 161 156 149 171 181 198 206 218 221 230 237
338 339 337 336 338 333 327 328 328 320 299 280 263 251 242 230 224 223 221 222 223 217 209 204 199 198 200 196 189 188 173 183 171 160 172 169 184 183 203 207 207 215 228
333 331 332 329 330 328 326 327 324 322 310 293 278 264 250 235 229 225 222 221 222 218 217 212 209 203 204 199 187 186 175 178 186 175 178 179 191 186 203 186 207 222 247
318 321 321 320 330 328 322 322 324 319 316 303 283 268 260 244 236 233 222 221 218 220 216 213 212 206 204 199 199 192 185 177 185 176 188 194 198 200 189 185 186 197 264
311 314 314 314 321 318 315 316 320 320 318 310 295 279 270 260 247 236 229 229 220 220 216 211 207 206 204 201 201 197 196 196 188 179 189 189 190 191 175 181 187 195 215
286 291 298 311 317 318 315 309 309 307 305 299 291 279 272 271 263 251 236 228 230 226 220 214 208 196 195 193 189 192 194 197 194 192 196 182 180 175 180 173 178 210 248
281 283 291 302 308 308 307 309 311 306 303 300 297 289 277 268 267 264 244 233 232 233 226 220 212 205 195 189 184 188 186 189 195 194 201 185 172 167 166 156 171 183 225
282 286 291 289 291 291 297 298 299 296 295 293 286 279 271 268 263 262 253 237 234 229 229 224 219 211 194 192 190 181 188 183 173 174 183 184 184 176 176 180 177 196 206
287 283 283 290 292 289 292 292 293 291 289 284 280 275 265 256 256 252 252 248 235 229 223 218 218 212 203 200 192 193 199 168 175 172 167 174 183 174 162 181 192 199 214
290 285 284 284 285 287 287 288 287 286 284 284 279 277 267 255 242 246 246 240 243 230 216 216 216 205 204 201 195 198 196 171 165 167 167 167 170 163 168 171 193 200 230
296 290 287 286 284 281 279 281 284 280 274 277 273 273 274 262 242 238 246 245 244 242 209 189 187 199 199 201 198 193 189 174 167 166 169 162 160 146 151 162 183 205 249
294 292 292 289 288 284 279 276 274 273 272 271 269 270 273 269 254 239 234 246 247 246 191 188 184 197 200 200 190 183 177 177 164 159 152 137 134 146 157 167 176 181 226
294 295 293 290 287 285 276 274 271 269 271 276 272 275 269 266 261 249 241 241 228 209 163 162 176 191 194 191 174 175 165 154 152 142 139 138 145 151 162 167 174 171 221
293 293 290 291 287 283 282 280 270 275 276 273 271 265 267 261 260 261 251 251 243 185 174 173 177 186 191 182 172 161 154 152 140 134 136 142 155 162 165 167 167 181 213
285 287 285 282 281 281 279 280 285 282 280 280 276 271 271 265 255 243 244 250 244 184 188 177 178 180 183 176 158 158 153 153 142 140 139 148 155 160 160 165 167 176 206
285 282 278 276 275 274 274 275 277 282 286 284 284 285 292 275 264 255 227 234 240 188 187 179 177 178 170 168 164 156 144 140 138 136 141 149 151 162 164 168 170 180 198
288 282 279 275 272 270 271 271 272 275 277 282 286 285 282 276 269 274 210 216 230 192 180 178 172 157 163 160 162 145 145 143 140 136 140 143 150 156 165 166 166 190 214
288 280 275 274 271 268 266 265 266 267 271 274 274 274 272 267 267 270 197 203 211 191 174 158 147 144 153 156 152 138 136 137 134 133 136 143 149 161 162 160 181 196 219
291 290 285 276 269 266 264 263 264 266 270 273 275 275 264 263 270 275 191 188 210 135 140 140 134 132 135 135 136 136 139 136 135 134 143 150 156 166 168 174 185 214 234
294 297 295 290 283 267 259 258 262 264 265 267 270 271 279 277 266 249 133 102 105 111 127 136 135 140 143 141 145 142 141 138 140 144 149 153 157 165 163 176 202 221 241
304 306 305 304 300 285 262 262 260 261 263 264 263 280 314 50 79 97 92 97 107 114 113 118 123 119 117 122 137 136 135 145 150 152 147 153 160 161 172 193 205 222 244
318 321 324 327 339 327 299 286 278 272 273 336 19 39 50 68 77 91 94 96 101 103 104 112 122 127 120 112 107 107 112 123 134 145 146 152 154 159 178 202 218 237 254
332 338 343 347 350 355 1 11 18 23 28 34 43 53 62 72 80 87 91 93 95 97 100 107 105 113 109 110 112 112 121 123 125 135 143 144 158 175 190 216 237 250 255
344 351 354 356 360 2 7 15 24 31 36 40 48 56 65 74 80 84 85 87 88 87 91 89 97 103 109 111 118 121 135 142 148 154 150 163 180 203 212 228 238 247 255